This demonstration page uses our WeatherBlox Daily Observations layout. Learn more.

Left ArrowRight Arrow

Hourly Observations for May 13, 2018

Temp ( °F °C ) Dew Point ( °F °C ) Humidity (%) Winds ( mph kmh ) Pressure ( in mb ) Visibility ( mi km ) Precip ( " mm )
12:49 am 00:49 Cloudy with Mist and Fog 48 9 48 9 100 100 NNE 9 15 30.03 1017 2 3 0.00 0.00
12:56 am 00:56 Cloudy with Mist and Fog 49 9.4 48 8.9 97 97 NE 10 17 30.04 1017 2 3 0.00 0.00
1:53 am 01:53 Cloudy with Mist and Fog 48 9 48 9 100 100 NNE 10 17 30.03 1017 3 5 0.00 0.00
1:56 am 01:56 Cloudy with Mist and Fog 49 9.4 48 8.9 97 97 NNE 13 20 30.01 1016 4 6 0.00 0.00
2:46 am 02:46 Cloudy with Mist and Fog 48 9 48 9 100 100 NE 13 20 29.97 1015 2 3 0.00 0.00
2:56 am 02:56 Cloudy with Mist and Fog 49 9.4 48 8.9 97 97 NE 12 19 30.00 1016 3 4 0.00 0.00
3:05 am 03:05 Cloudy with Mist and Fog 48 9 48 9 100 100 NE 13 20 30.00 1016 3 4 0.00 0.00
3:17 am 03:17 Cloudy with Mist and Fog 48 9 48 9 100 100 NNE 9 15 29.97 1015 1 2 0.00 0.00
3:25 am 03:25 Cloudy with Mist and Fog 48 9 48 9 100 100 NNE 12 19 29.97 1015 1 1 0.00 0.00
3:32 am 03:32 Cloudy with Fog 48 9 48 9 100 100 NE 10 17 29.97 1015 1 1 0.00 0.00
3:50 am 03:50 Cloudy with Mist and Fog 48 9 48 9 100 100 NE 13 20 29.97 1015 1 2 0.00 0.00
3:56 am 03:56 Cloudy with Mist and Fog 48 8.9 48 8.9 100 100 NE 9 15 29.97 1015 2 2 0.00 0.00
4:00 am 04:00 Cloudy with Mist and Fog 48 9 48 9 100 100 NNE 10 17 29.97 1015 4 6 0.00 0.00
4:56 am 04:56 Cloudy with Mist and Fog 49 9.4 48 8.9 97 97 NNE 7 11 29.96 1015 5 8 0.00 0.00
5:56 am 05:56 Cloudy with Light Rain 49 9.4 49 9.4 100 100 NNW 6 9 30.00 1016 4 6 0.00 0.03
6:31 am 06:31 Cloudy with Light Rain 48 9 48 9 100 100 N 12 19 30.00 1016 3 5 0.00 0.00
6:43 am 06:43 Cloudy with Light Rain 48 9 48 9 100 100 N 14 22 30.03 1017 3 4 0.00 0.00
6:56 am 06:56 Cloudy with Light Rain 49 9.4 48 8.9 97 97 N 13 20 30.02 1017 3 4 0.00 0.03
7:09 am 07:09 Cloudy with Light Rain 48 9 48 9 100 100 NNE 13 20 30.03 1017 3 5 0.00 0.00
7:56 am 07:56 Cloudy with Mist and Fog 49 9.4 49 9.4 100 100 NE 13 20 30.02 1017 3 5 0.01 0.25
8:56 am 08:56 Cloudy 51 10.6 50 10 96 96 E 14 22 30.00 1016 9 14 0.00 0.00
9:56 am 09:56 Cloudy 52 11.1 51 10.6 97 97 E 12 19 29.98 1015 10 16 0.00 0.00
10:56 am 10:56 Cloudy 53 11.7 51 10.6 93 93 E 5 7 30.01 1016 9 14 0.00 0.00
11:56 am 11:56 Cloudy with Mist and Fog 53 11.7 52 11.1 96 96 NNE 5 7 30.02 1017 6 10 0.00 0.00
12:56 pm 12:56 Cloudy with Mist and Fog 54 12.2 52 11.1 93 93 Calm 30.00 1016 5 8 0.00 0.00
1:49 pm 13:49 Cloudy 55 13 54 12 94 94 NNE 5 7 29.97 1015 7 11 0.00 0.00
1:56 pm 13:56 Cloudy 55 12.8 53 11.7 93 93 NNE 6 9 29.98 1015 7 11 0.00 0.00
2:56 pm 14:56 Cloudy 56 13.3 53 11.7 90 90 N 5 7 29.98 1015 8 13 0.00 0.00
3:56 pm 15:56 Cloudy 57 13.9 53 11.7 87 87 NNW 5 7 29.96 1015 9 14 0.00 0.00
4:13 pm 16:13 Cloudy 57 14 54 12 88 88 N 7 11 29.94 1014 10 16 0.00 0.00
4:44 pm 16:44 Cloudy 59 15 54 12 82 82 NNW 12 19 29.88 1012 10 16 0.00 0.00
4:56 pm 16:56 Cloudy 58 14.4 54 12.2 87 87 N 10 17 29.94 1014 10 16 0.00 0.00
5:31 pm 17:31 Cloudy 57 14 54 12 88 88 N 12 19 29.94 1014 9 14 0.00 0.00
5:56 pm 17:56 Cloudy 57 13.9 55 12.8 93 93 N 10 17 29.95 1014 10 16 0.00 0.00
6:56 pm 18:56 Cloudy 57 13.9 54 12.2 90 90 N 12 19 29.94 1014 10 16 0.00 0.00
7:51 pm 19:51 Cloudy 57 14 54 12 88 88 NNE 10 17 29.91 1013 10 16 0.00 0.00
7:56 pm 19:56 Cloudy 57 13.9 54 12.2 90 90 NNE 12 19 29.94 1014 10 16 0.00 0.00
8:24 pm 20:24 Cloudy 55 13 54 12 94 94 NNE 10 17 29.91 1013 10 16 0.00 0.00
8:56 pm 20:56 Cloudy 56 13.3 54 12.2 93 93 NNE 9 15 29.93 1014 10 16 0.00 0.00
9:56 pm 21:56 Cloudy 55 12.8 53 11.7 93 93 NE 8 13 29.96 1014 10 16 0.00 0.00
10:53 pm 22:53 Cloudy 54 12 54 12 100 100 N 10 17 29.94 1014 10 16 0.00 0.00
10:56 pm 22:56 Cloudy 55 12.8 53 11.7 93 93 N 12 19 29.97 1015 10 16 0.00 0.00
11:56 pm 23:56 Cloudy 54 12.2 53 11.7 97 97 N 13 20 29.96 1014 10 16 0.00 0.00

Powered by AerisWeather